Regional Weather Roundup
Issued by NWS

Home | Current Version | Previous Version | Graphics & Text | Print | Product List | Glossary Off
Versions: 1 2 3 4 5 6 7 8 9 10 11 12 13 14 15 16 17 18 19 20 21 22 23 24 25 26 27 28 29 30 31 32 33 34 35 36 37 38 39 40 41 42 43 44 45 46 47 48 49 50

392
ASUS43 KTOP 110508
RWRKS

WEATHER ROUNDUP FOR KANSAS
NATIONAL WEATHER SERVICE GOODLAND KS
1100 PM CST SAT DEC 10 2016

NOTE:  "FAIR" INDICATES FEW OR NO CLOUDS BELOW 12,000 FEET WITH NO
SIGNIFICANT WEATHER AND/OR OBSTRUCTIONS TO VISIBILITY.

KSZ001>006-013>018-027>032-041>047-110600-
NORTHWEST KANSAS

CITY           SKY/WX    TMP DP  RH WIND       PRES   REMARKS
GOODLAND       CLOUDY    31  25  78 S7        29.67F
HAYS           CLOUDY    29  26  89 E10       29.74F WCI  20
HILL CITY      CLOUDY    27  22  81 CALM      29.73F
RUSSELL        CLOUDY    29  24  82 E9        29.74F
$$

KSZ061>065-074>080-084>089-110600-
SOUTHWEST KANSAS

CITY           SKY/WX    TMP DP  RH WIND       PRES   REMARKS
DODGE CITY     CLOUDY    37  32  82 S17       29.67F WCI  27
ELKHART          N/A     51  22  32 W17         N/A
GARDEN CITY    CLOUDY    35  30  82 S7        29.64F
GREAT BEND     CLOUDY    36  30  79 SE10      29.73F WCI  28
LIBERAL        CLOUDY    48  32  53 S17       29.66F
PRATT          MOCLDY    33  28  80 S20       29.73F WCI  22
$$

KSZ066>073-081>083-090>101-110600-
SOUTHEAST KANSAS

CITY           SKY/WX    TMP DP  RH WIND       PRES   REMARKS
CHANUTE        CLOUDY    42  28  57 S18       29.96F
COFFEYVILLE    CLOUDY    44  31  60 S18G28    29.99F
HUTCHINSON     CLOUDY    38  28  67 S21G30    29.79F WCI  28
MEDICINE LODGE   N/A     36  30  79 SE12      29.77F WCI  28
NEWTON         CLOUDY    36  28  73 S22G30    29.82F WCI  25
PARSONS        CLOUDY    43  30  60 S13G22    29.99F
WICHITA INTL   CLOUDY    37  29  72 S18       29.84F WCI  27
WICHITA JABRA  CLOUDY    36  29  75 S24G30    29.83F WCI  24
WICHITA MCCONL CLOUDY    37  29  74 S20G25    29.84F WCI  27
WINFIELD       CLOUDY    38  31  76 S15       29.90F WCI  29
$$

KSZ007>012-019>026-033>040-048>060-102>105-110600-
NORTHEAST KANSAS

CITY           SKY/WX    TMP DP  RH WIND       PRES   REMARKS
CONCORDIA      CLOUDY    32  25  75 SE9       29.82F
EMPORIA        CLOUDY    37  24  59 S15       29.91F WCI  28
LAWRENCE       CLOUDY    36  22  56 SE9       29.97F
MANHATTAN      CLOUDY    35  23  61 S6        29.88F
MARYSVILLE     CLOUDY    32  23  69 SE9       29.86F
OLATHE IND     CLOUDY    39  20  46 S16       29.98F WCI  30
OLATHE EXE     CLOUDY    39  20  46 S13       29.98F WCI  31
SALINA         CLOUDY    36  26  67 SE8       29.83F
TOPEKA BILLARD CLOUDY    38  22  52 SE8       29.94F
TOPEKA FORBES  CLOUDY    39  22  50 S14       29.93F WCI  31
$$




USA.gov is the U.S. government's official web portal to all federal, state and local government web resources and services.